Hourly Data Report for May 09, 2021

CLYDE RIVER A
NUNAVUT
Current Station Operator: NAVCAN

70°29'09.000" N
68°31'01.000" W
26.50 m
2400804
71090
YCY

Download Data

Hourly Data (May 2021)
Hourly Data Report for May 9, 2021
TIME
LST
Temp Definition
°C
Dew Point Definition
°C
Rel Hum Definition
%
Precip. Amount Definition
mm

Wind Dir Definition
10's deg

Wind Spd Definition
km/h
Visibility Definition
km
Stn Press Definition
kPa
Hmdx Definition


Wind Chill Definition


Weather Definition


00:00 -4.9 -4.9 100 0.2 4 8 3.6 102.01   -8 Snow
01:00 -5.2 -5.3 99 0.2 4 9 4.8 102.00   -9 Snow
02:00 -5.6 -5.7 99 0.0 1 9 8.1 102.01   -10 Snow
03:00 -5.5 -5.8 98 0.0 35 9 16.1 102.03   -10 Snow
04:00 -5.7 -6.0 98 0.0 34 13 16.1 102.03   -11 Snow
05:00 -5.7 -6.1 97 0.0 33 17 16.1 102.05   -12 Snow
06:00 -6.7 -7.2 96 0.0 33 21 16.1 102.06   -14 Snow
07:00 -6.3 -7.1 94 0.0 31 18 16.1 102.08   -13 Snow
08:00 -4.5 -5.6 92 0.0 32 21 16.1 102.09   -11 LegendNANA
09:00 -4.3 -5.3 93 0.0 33 22 16.1 102.06   -11 LegendNANA
10:00 -4.2 -5.2 93 0.0 33 21 16.1 102.07   -11 LegendNANA
11:00 -4.3 -5.3 93 0.0 34 17 16.1 102.06   -10 Snow
12:00 -4.4 -5.7 91 0.0 33 17 16.1 102.05   -10 Snow
13:00 -4.8 -5.9 92 0.0 34 17 16.1 102.05   -11 Snow
14:00 -4.8 -6.3 89 0.0 35 21 16.1 102.03   -11 Snow
15:00 -5.3 -6.5 91 0.0 32 13 16.1 102.02   -10 LegendNANA
16:00 -6.4 -7.8 90 0.0 29 9 16.1 102.02   -11 LegendNANA
17:00 -8.3 -9.2 93 0.0 31 13 16.1 102.00   -14 LegendNANA
18:00 -8.0 -9.1 92 0.0 32 13 16.1 101.98   -14 LegendNANA
19:00 -8.1 -9.2 92 0.0 31 9 16.1 101.96   -13 LegendNANA
20:00 -11.8 -12.5 95 0.0 32 13 16.1 101.93   -18 LegendNANA
21:00 -13.1 -13.7 96 0.0 29 5 16.1 101.95   -16 LegendNANA
22:00 -9.5 -10.2 95 0.0 LegendMM 4 16.1 101.94   -12 LegendNANA
23:00 -8.5 -9.2 95 0.0   0 16.1 101.92     LegendNANA

Notes on Data Quality.

Legend

  • E = Estimated
  • M = Missing
  • NA = Not Available*
  • [empty] = Indicates an unobserved value
Date modified: